Cadjehoun Airport

Jump to: basic info | weather | frequencies | runways | comments

Related pages: nearby airports | nearby navaids | notams | map

Basic information (top)

Codes: COO DBBB
Location: lon 6.357230, lat 2.384350, elev 19 ft / 6 m msl
Status: medium_airport
Scheduled airline service: yes
Links: Wikipedia Mobile

Weather (top)

Current conditions (rec'd 2014/11/26 09:00Z):

DBBB 260900Z 24005KT 180V310 8000 SCT012 BKN120 29/27 Q1011 NOSIG

Airport forecast (rec'd 2014/11/24 18:45Z):

TAF COR DBBB 241700Z 2418/2524 22010KT 9999 SCT013 PROB30 
      TEMPO 2418/2422 TS SCT013 FEW023CB 
      BECMG 2503/2505 34002KT 
      TEMPO 2505/2508 4000 BR BKN010 
      BECMG 2508/2510 22010KT 
      TEMPO 2515/2520 TS SCT013 FEW023CB

Frequencies (top)

Verify before use: may be inaccurate or out of date.

A/G: 658.6 MHz (A/G VOICE RDO)
APP: 125.9 MHz (APP)
TWR: 125.9 MHz (TWR)

Runways (top)

06/24: 7,874 x 148 ft (2,400 x 45 m) — paved — lighted — threshold 06 displaced 125 ft (38 m)

Latest comments (top)

No comments yet for Cadjehoun Airport

More... (top)

See also NOTAMs and nearby airports and navaids, or visit the Cadjehoun Airport page at the main OurAirports website..